Temp
-6 -5 -5 -5 -4 -4 -4 -4 -5 -5 -5 -6 -6 -6 -6 -6 -7 -7 -7 -8 -8 -8 -8 -8 -8 -8 -8 -8 -8 -9 -9 -9 -9 -9 -8 -8 -8 -8 -8 -8 -8 -8 -9
-5 -5 -5 -5 -4 -5 -4 -4 -5 -5 -5 -5 -6 -6 -6 -7 -7 -7 -7 -7 -8 -8 -8 -8 -8 -8 -9 -8 -8 -8 -8 -8 -8 -9 -9 -9 -9 -9 -8 -8 -8 -8 -8
-5 -5 -5 -6 -5 -5 -5 -5 -5 -5 -5 -5 -5 -6 -6 -7 -7 -7 -7 -7 -8 -8 -8 -8 -8 -8 -8 -8 -8 -8 -8 -9 -9 -9 -9 -9 -9 -8 -9 -8 -8 -8 -8
-6 -6 -6 -5 -6 -5 -5 -5 -5 -5 -5 -5 -5 -5 -6 -6 -7 -7 -7 -7 -7 -8 -8 -8 -8 -8 -8 -8 -8 -8 -8 -8 -8 -8 -8 -9 -9 -8 -8 -8 -8 -8 -8
-7 -6 -6 -6 -6 -5 -5 -5 -6 -5 -5 -5 -5 -5 -5 -5 -6 -7 -7 -7 -7 -7 -7 -7 -8 -8 -8 -8 -7 -8 -7 -7 -7 -7 -7 -8 -8 -9 -8 -8 -8 -8 -8
-7 -8 -6 -6 -6 -6 -6 -6 -5 -6 -6 -5 -5 -6 -6 -6 -6 -6 -7 -7 -7 -7 -8 -8 -7 -7 -7 -7 -7 -7 -7 -7 -7 -7 -7 -7 -8 -8 -8 -8 -8 -8 -8
-7 -7 -7 -6 -6 -6 -6 -6 -6 -6 -6 -6 -6 -5 -5 -6 -6 -6 -6 -6 -7 -6 -7 -7 -7 -7 -7 -7 -7 -6 -6 -6 -6 -6 -6 -7 -7 -7 -7 -8 -7 -8 -8
-8 -8 -7 -7 -7 -7 -6 -6 -6 -7 -6 -6 -6 -6 -6 -5 -6 -6 -6 -6 -6 -6 -6 -6 -6 -6 -7 -6 -6 -6 -6 -6 -7 -6 -6 -7 -7 -7 -7 -7 -7 -8 -8
-8 -8 -8 -7 -7 -7 -7 -7 -7 -6 -6 -6 -6 -6 -6 -6 -6 -6 -6 -5 -5 -5 -5 -6 -6 -6 -6 -7 -6 -6 -6 -6 -6 -6 -7 -7 -7 -7 -7 -7 -7 -7 -8
-8 -8 -8 -8 -8 -7 -7 -7 -7 -7 -6 -6 -6 -6 -6 -6 -6 -6 -6 -6 -5 -5 -5 -6 -6 -6 -6 -6 -6 -6 -5 -6 -6 -6 -6 -6 -6 -6 -6 -7 -7 -7 -7
-9 -9 -8 -7 -8 -8 -8 -7 -7 -7 -7 -7 -6 -6 -6 -6 -6 -6 -6 -6 -5 -5 -5 -5 -6 -6 -6 -6 -6 -5 -5 -5 -6 -6 -6 -6 -6 -6 -6 -6 -7 -7 -7
-8 -9 -8 -8 -8 -8 -9 -8 -8 -8 -7 -7 -7 -7 -7 -7 -7 -7 -7 -6 -6 -6 -5 -5 -5 -6 -5 -5 -5 -5 -6 -6 -6 -5 -6 -6 -6 -6 -6 -6 -6 -7 -7
-8 -8 -8 -9 -9 -8 -9 -8 -9 -9 -8 -8 -8 -8 -8 -8 -7 -7 -7 -7 -6 -6 -6 -5 -5 -5 -5 -6 -6 -6 -6 -6 -6 -6 -6 -6 -6 -6 -6 -6 -6 -6 -6
-8 -8 -9 -8 -9 -9 -8 -8 -8 -9 -9 -9 -8 -8 -8 -8 -8 -8 -8 -8 -8 -7 -6 -6 -6 -6 -6 -6 -6 -7 -7 -6 -6 -6 -6 -6 -6 -6 -6 -6 -6 -6 -6
-9 -9 -8 -8 -8 -8 -8 -8 -8 -8 -9 -9 -9 -8 -8 -8 -8 -8 -8 -8 -8 -7 -7 -7 -6 -6 -6 -7 -7 -7 -7 -7 -7 -6 -6 -7 -7 -7 -6 -6 -6 -6 -6
-9 -9 -9 -9 -9 -8 -8 -8 -8 -8 -8 -8 -8 -9 -9 -8 -8 -8 -8 -8 -8 -8 -8 -8 -8 -8 -8 -8 -7 -8 -8 -8 -7 -7 -7 -7 -7 -7 -7 -7 -6 -6 -6
-9 -9 -9 -9 -9 -9 -8 -8 -9 -8 -8 -8 -8 -9 -9 -9 -8 -8 -8 -8 -8 -8 -8 -8 -8 -8 -7 -8 -8 -8 -8 -7 -7 -7 -7 -7 -7 -8 -7 -7 -7 -6 -7
-10 -9 -9 -8 -9 -9 -8 -8 -8 -8 -8 -8 -8 -9 -9 -9 -8 -8 -8 -8 -8 -8 -8 -8 -8 -8 -8 -8 -7 -7 -8 -7 -7 -7 -7 -7 -8 -8 -9 -8 -7 -7 -7
-10 -10 -11 -9 -8 -8 -8 -8 -8 -8 -8 -8 -8 -8 -8 -9 -8 -8 -8 -8 -8 -8 -8 -8 -8 -8 -8 -8 -8 -7 -8 -8 -8 -7 -7 -8 -9 -9 -9 -9 -8 -8 -8
-12 -11 -10 -10 -10 -9 -8 -8 -8 -8 -8 -8 -8 -8 -8 -8 -9 -8 -9 -8 -8 -8 -8 -8 -9 -9 -8 -8 -8 -8 -7 -7 -8 -8 -7 -7 -8 -9 -11 -10 -10 -9 -9
-12 -12 -11 -11 -11 -10 -9 -9 -8 -8 -8 -8 -8 -8 -8 -8 -8 -8 -8 -9 -9 -9 -9 -9 -8 -9 -8 -8 -8 -8 -8 -8 -8 -8 -7 -7 -7 -9 -11 -11 -10 -9 -9
-13 -12 -12 -11 -11 -11 -10 -10 -9 -9 -8 -8 -8 -8 -8 -8 -8 -8 -8 -8 -9 -9 -9 -9 -9 -8 -8 -8 -8 -9 -9 -8 -7 -8 -8 -8 -8 -9 -9 -10 -10 -10 -9
-14 -13 -12 -12 -11 -11 -11 -11 -10 -10 -9 -9 -9 -9 -8 -9 -8 -8 -9 -8 -8 -9 -9 -9 -9 -9 -9 -9 -9 -8 -8 -8 -8 -7 -8 -8 -8 -9 -9 -10 -10 -10 -9
-14 -13 -13 -12 -12 -11 -12 -11 -11 -11 -10 -10 -9 -9 -9 -9 -9 -9 -9 -9 -9 -9 -9 -9 -9 -9 -9 -9 -8 -8 -8 -8 -8 -8 -7 -8 -8 -8 -9 -9 -9 -10 -9
-15 -14 -14 -13 -13 -13 -12 -12 -12 -11 -11 -11 -10 -10 -10 -10 -10 -10 -10 -9 -9 -9 -9 -9 -9 -9 -9 -9 -9 -8 -8 -7 -8 -9 -8 -8 -9 -9 -9 -9 -9 -10 -10
-15 -15 -15 -15 -14 -14 -14 -14 -13 -13 -12 -12 -12 -11 -11 -11 -11 -10 -10 -10 -10 -10 -10 -10 -9 -9 -9 -9 -9 -9 -8 -8 -8 -8 -8 -8 -8 -8 -9 -9 -9 -10 -10
Height
5915 5918 5921 5925 5927 5930 5934 5938 5940 5943 5944 5945 5948 5949 5950 5951 5952 5953 5954 5955 5956 5956 5957 5957 5956 5956 5955 5954 5952 5949 5947 5945 5942 5937 5933 5929 5923 5919 5914 5910 5905 5897 5889
5913 5915 5918 5921 5923 5927 5931 5932 5937 5939 5942 5942 5944 5946 5947 5949 5951 5951 5951 5952 5952 5953 5954 5954 5953 5953 5952 5951 5949 5946 5944 5942 5941 5937 5931 5925 5920 5917 5912 5906 5901 5895 5888
5911 5911 5914 5916 5920 5921 5925 5929 5932 5934 5937 5939 5941 5942 5943 5944 5947 5948 5948 5948 5948 5949 5949 5949 5949 5948 5948 5946 5945 5943 5940 5937 5933 5931 5929 5923 5917 5913 5910 5904 5898 5892 5884
5907 5909 5911 5911 5915 5917 5918 5922 5926 5928 5931 5934 5936 5938 5939 5939 5941 5942 5943 5944 5944 5944 5944 5943 5943 5943 5942 5941 5939 5937 5934 5932 5928 5925 5922 5920 5913 5909 5906 5901 5896 5888 5881
5901 5904 5906 5906 5909 5911 5914 5916 5920 5923 5925 5928 5930 5932 5933 5935 5936 5937 5937 5938 5939 5939 5939 5938 5937 5936 5936 5935 5934 5932 5928 5926 5923 5920 5918 5916 5910 5904 5901 5897 5892 5885 5879
5894 5894 5899 5903 5905 5906 5909 5911 5913 5917 5919 5921 5924 5926 5927 5929 5931 5931 5932 5932 5932 5933 5933 5933 5932 5932 5931 5930 5927 5925 5923 5920 5918 5914 5913 5910 5907 5901 5897 5893 5887 5881 5876
5887 5889 5894 5897 5899 5901 5902 5904 5908 5910 5912 5915 5917 5918 5921 5924 5923 5923 5925 5926 5927 5927 5927 5927 5927 5927 5926 5924 5922 5919 5917 5915 5911 5908 5907 5905 5902 5897 5893 5888 5882 5877 5870
5885 5886 5889 5891 5892 5893 5895 5899 5901 5903 5904 5907 5910 5912 5914 5916 5917 5917 5918 5918 5919 5921 5921 5921 5920 5921 5920 5918 5915 5915 5912 5910 5907 5902 5900 5898 5894 5891 5885 5881 5877 5872 5867
5879 5881 5882 5884 5885 5887 5890 5892 5894 5895 5897 5900 5902 5904 5906 5909 5910 5911 5911 5911 5912 5914 5915 5915 5915 5915 5915 5911 5908 5908 5907 5905 5901 5899 5896 5893 5889 5886 5881 5876 5871 5867 5862
5873 5874 5874 5876 5879 5881 5884 5885 5886 5887 5889 5891 5894 5896 5898 5901 5902 5903 5903 5903 5905 5907 5908 5908 5908 5908 5907 5904 5899 5897 5899 5898 5896 5893 5890 5885 5883 5881 5876 5871 5866 5861 5856
5864 5867 5868 5866 5872 5875 5877 5879 5879 5880 5880 5883 5887 5888 5891 5893 5894 5894 5894 5895 5896 5898 5899 5901 5900 5899 5897 5895 5891 5890 5891 5890 5889 5886 5883 5880 5877 5874 5870 5866 5860 5855 5851
5856 5859 5861 5862 5864 5866 5868 5870 5871 5873 5874 5876 5878 5880 5882 5883 5885 5886 5886 5887 5887 5888 5890 5892 5891 5890 5887 5886 5885 5884 5882 5880 5878 5877 5875 5872 5869 5867 5863 5859 5854 5850 5846
5846 5850 5852 5853 5856 5859 5861 5863 5863 5865 5867 5869 5871 5873 5874 5875 5876 5877 5877 5878 5878 5878 5880 5881 5882 5882 5881 5879 5875 5873 5870 5869 5868 5867 5865 5863 5861 5858 5856 5852 5848 5843 5840
5837 5840 5844 5847 5849 5851 5853 5855 5856 5858 5860 5862 5864 5866 5867 5867 5870 5871 5871 5870 5869 5869 5869 5871 5871 5871 5869 5866 5865 5862 5858 5857 5857 5855 5854 5853 5851 5850 5847 5845 5842 5837 5833
5827 5829 5833 5837 5839 5842 5844 5845 5846 5849 5851 5853 5856 5858 5859 5861 5862 5862 5863 5864 5862 5861 5860 5861 5861 5859 5858 5858 5856 5852 5848 5847 5845 5843 5842 5842 5842 5840 5838 5837 5835 5830 5826
5817 5818 5822 5825 5827 5830 5832 5834 5837 5839 5841 5844 5845 5848 5850 5852 5853 5853 5854 5854 5853 5853 5852 5850 5850 5850 5850 5848 5843 5840 5835 5832 5833 5832 5831 5830 5831 5830 5829 5828 5827 5824 5819
5802 5803 5807 5811 5813 5816 5819 5822 5824 5827 5831 5833 5836 5836 5839 5842 5843 5843 5844 5845 5845 5844 5844 5842 5841 5839 5837 5832 5830 5827 5821 5819 5820 5819 5819 5820 5820 5820 5819 5819 5819 5816 5812
5780 5784 5787 5792 5797 5799 5803 5807 5811 5814 5817 5820 5823 5826 5828 5829 5831 5832 5833 5833 5834 5833 5833 5832 5831 5829 5827 5823 5817 5814 5811 5808 5806 5808 5809 5808 5809 5808 5808 5809 5809 5808 5805
5766 5769 5772 5774 5778 5783 5787 5790 5794 5798 5801 5805 5808 5811 5815 5817 5818 5818 5820 5821 5822 5823 5821 5820 5819 5817 5814 5811 5804 5796 5795 5795 5796 5798 5795 5791 5792 5794 5796 5798 5799 5799 5798
5752 5752 5756 5758 5761 5765 5769 5773 5777 5781 5784 5788 5792 5795 5798 5802 5801 5804 5806 5807 5807 5808 5808 5810 5808 5806 5804 5800 5794 5788 5785 5782 5785 5787 5784 5782 5780 5780 5786 5788 5790 5792 5791
5739 5740 5742 5745 5747 5749 5752 5755 5759 5763 5767 5770 5774 5778 5781 5784 5785 5787 5790 5792 5792 5793 5794 5796 5796 5794 5793 5791 5786 5783 5780 5776 5776 5775 5774 5772 5768 5770 5775 5777 5781 5783 5783
5723 5727 5729 5731 5733 5736 5737 5739 5743 5746 5749 5753 5756 5760 5764 5766 5768 5770 5773 5775 5776 5778 5780 5782 5783 5782 5782 5781 5778 5774 5771 5769 5767 5766 5764 5762 5762 5764 5764 5769 5772 5774 5775
5705 5708 5712 5716 5718 5721 5722 5724 5726 5728 5731 5734 5738 5743 5746 5748 5751 5753 5755 5758 5759 5762 5764 5766 5768 5768 5768 5767 5768 5767 5765 5761 5758 5755 5755 5756 5757 5757 5758 5758 5763 5766 5767
5688 5691 5694 5698 5701 5703 5706 5708 5710 5712 5715 5717 5719 5723 5728 5731 5733 5736 5739 5741 5743 5746 5749 5751 5753 5754 5755 5754 5755 5756 5755 5750 5747 5744 5743 5745 5748 5749 5749 5751 5754 5757 5760
5669 5673 5676 5678 5681 5683 5687 5691 5693 5695 5697 5700 5702 5704 5708 5711 5715 5719 5721 5724 5726 5729 5732 5735 5737 5739 5741 5742 5743 5743 5741 5739 5738 5737 5735 5735 5738 5739 5742 5744 5744 5747 5750
5649 5652 5655 5659 5662 5664 5667 5671 5674 5677 5680 5682 5683 5686 5689 5692 5695 5699 5702 5706 5709 5711 5714 5717 5720 5723 5725 5727 5728 5729 5730 5728 5728 5729 5729 5729 5730 5731 5732 5734 5735 5737 5739
Wind_Speed
17 18 18 19 19 21 21 19 19 18 17 16 14 15 15 16 18 19 20 20 18 16 15 13 12 11 10 10 12 14 15 15 18 24 25 27 29 30 34 37 41 45 49
12 16 20 21 21 20 22 23 22 21 20 19 18 17 17 17 18 19 21 22 22 20 18 17 16 16 16 16 17 19 20 19 18 20 27 31 31 30 33 35 39 44 48
13 12 18 21 22 22 22 23 25 25 24 22 21 21 20 21 21 22 22 23 24 24 22 22 20 20 21 21 22 24 25 26 26 26 26 31 35 32 32 35 38 42 47
15 13 12 16 24 25 25 26 26 27 27 26 26 25 23 22 23 24 24 25 26 25 25 24 25 24 24 26 26 27 28 29 30 32 29 27 36 35 31 33 38 43 46
19 14 13 13 19 28 28 27 27 29 29 30 29 28 27 25 24 24 25 26 25 25 25 25 26 26 27 27 27 29 30 30 30 31 29 28 32 36 33 34 36 41 46
24 19 15 15 16 19 27 29 29 29 31 33 32 31 31 29 28 29 29 27 26 25 26 26 26 27 28 28 29 30 28 28 29 29 29 28 28 34 34 35 38 41 44
24 20 20 20 19 22 24 29 30 30 32 32 34 35 34 33 34 34 33 32 30 27 27 27 26 26 26 26 28 30 30 29 30 32 30 31 29 33 35 37 38 42 46
28 23 23 22 21 23 27 29 31 32 33 33 33 35 35 35 36 37 36 37 35 32 31 30 30 30 29 30 31 30 33 32 31 34 34 34 35 36 39 41 42 43 44
27 29 22 22 21 23 25 28 30 34 34 34 34 34 34 33 35 37 39 39 37 34 34 33 33 32 32 37 38 35 34 34 36 37 38 39 39 39 41 44 44 42 41
32 27 30 28 26 26 24 27 29 33 34 36 36 35 35 34 34 35 37 37 37 35 35 35 35 35 36 39 43 44 37 39 39 39 42 44 42 41 40 43 45 43 43
31 34 36 32 25 26 27 29 31 32 32 35 36 36 36 36 34 35 36 37 37 38 37 36 38 40 41 44 46 46 43 42 41 41 42 42 42 40 41 41 43 44 43
35 33 34 34 36 32 29 30 30 31 31 32 35 35 35 35 34 34 37 38 41 41 39 38 40 41 44 45 46 45 44 43 42 42 41 41 39 37 39 40 40 43 42
31 33 31 33 37 32 31 31 32 32 32 29 31 31 34 32 33 34 36 38 41 42 42 42 42 42 43 44 46 46 46 44 44 43 43 42 40 37 37 39 38 39 37
42 37 31 30 38 35 37 36 35 35 35 32 33 32 32 31 30 28 30 33 37 40 42 44 44 44 46 46 45 45 46 45 44 44 44 43 42 39 37 38 35 35 34
41 35 34 35 35 41 44 43 39 38 39 37 36 35 32 30 29 30 29 29 31 33 38 41 42 43 45 48 48 49 49 46 42 43 43 42 41 41 38 37 35 32 33
51 50 50 50 46 44 45 47 48 45 45 44 39 39 38 35 35 35 33 32 33 32 32 33 37 41 49 54 55 57 54 40 43 41 40 40 37 39 37 36 34 32 32
64 67 66 61 57 55 50 51 52 55 49 48 46 45 45 44 43 43 40 38 38 38 37 39 41 44 51 50 54 58 44 39 40 40 38 37 36 35 35 34 33 31 29
60 62 65 68 59 54 53 52 54 57 59 54 52 51 51 51 50 49 49 48 45 45 43 43 45 47 49 53 58 55 46 41 44 46 43 39 37 35 31 33 30 30 28
67 70 56 60 68 61 59 58 55 57 60 63 60 59 56 57 56 55 55 53 53 52 52 48 48 49 53 54 60 53 51 42 43 46 49 46 38 35 30 30 26 26 26
48 47 49 50 51 53 56 61 59 59 60 63 64 65 64 63 65 64 63 61 59 57 57 52 49 50 52 51 48 43 40 35 38 41 41 40 47 40 26 30 23 24 26
48 47 50 48 52 56 58 61 65 65 63 62 65 66 67 67 67 66 63 61 63 64 59 55 51 51 52 43 40 37 25 25 30 34 34 36 40 31 32 35 22 25 26
55 54 55 55 52 55 60 62 65 68 66 65 64 63 65 65 67 66 64 62 62 57 55 52 48 49 45 41 38 38 31 29 28 30 29 31 31 31 36 29 23 28 26
59 57 58 59 59 57 56 60 62 66 69 69 68 65 63 62 63 64 65 64 63 59 54 50 47 44 45 39 39 37 32 30 33 28 24 25 24 25 25 24 28 29 27
63 62 62 62 63 63 59 59 61 62 65 69 69 68 66 64 62 61 61 61 60 59 56 53 51 49 48 43 42 38 36 32 35 29 28 25 28 25 32 26 28 28 31
65 64 63 64 64 63 63 61 61 61 60 63 66 66 66 66 64 62 60 60 60 57 53 52 52 50 49 46 42 39 33 31 29 21 18 18 29 28 33 30 25 29 32
68 66 64 65 66 65 65 64 63 61 61 62 62 64 66 65 64 63 63 63 61 61 58 55 53 51 49 47 44 42 38 32 27 29 27 23 23 27 31 32 31 34 40
Wind_Direction
209 210 207 215 219 208 204 211 211 216 210 201 219 216 211 218 224 225 223 223 222 221 224 235 244 252 263 274 289 288 297 309 319 325 327 333 334 340 345 350 353 356 355
222 219 219 217 222 223 219 212 216 218 225 222 214 220 216 224 234 236 238 240 242 243 240 245 253 260 267 275 282 293 300 302 309 318 319 321 321 328 337 345 348 350 352
235 232 228 221 226 223 225 226 221 222 222 229 232 225 222 221 229 240 243 246 249 252 255 259 261 263 271 276 281 287 292 299 308 310 312 313 314 320 328 340 344 345 348
229 235 246 228 225 230 225 226 226 229 226 224 228 234 233 231 232 237 242 244 247 251 255 258 264 266 268 274 279 284 289 295 298 302 307 307 305 310 325 335 340 343 344
229 236 240 247 230 230 236 231 229 231 233 230 229 233 235 237 239 243 244 248 251 254 257 260 263 267 272 278 285 288 293 296 299 301 302 305 303 306 320 328 335 338 343
246 204 249 259 253 238 237 243 237 235 235 240 237 236 237 240 241 243 246 249 250 256 261 264 267 271 276 281 286 289 292 295 301 303 306 308 307 305 313 321 327 332 336
252 248 239 247 262 263 247 241 247 245 241 241 242 244 243 240 241 244 248 252 255 256 258 263 268 272 275 278 281 287 292 298 303 302 307 312 313 308 311 318 325 327 330
239 243 252 254 258 257 255 253 244 245 247 248 247 247 248 249 248 248 249 251 255 258 260 262 266 269 274 277 278 284 290 295 299 302 310 310 310 314 316 318 320 324 328
231 237 248 258 264 264 253 252 254 250 247 248 249 249 249 249 251 254 254 255 258 261 262 265 269 273 278 280 281 282 284 291 291 297 299 301 304 308 313 315 317 322 325
228 231 241 243 255 258 254 253 254 255 254 252 249 250 251 251 252 252 256 259 259 261 262 265 268 272 273 275 278 281 286 289 292 294 295 298 301 305 307 309 313 317 320
223 234 245 226 236 247 256 261 259 256 255 257 256 252 253 255 256 258 259 259 260 260 261 264 266 267 270 271 274 279 285 286 289 290 292 296 301 304 304 304 308 310 316
238 234 239 249 228 236 245 250 256 260 262 255 254 256 256 257 260 261 263 264 266 267 267 267 266 267 270 273 278 282 284 285 285 288 293 296 301 303 304 303 304 306 315
239 247 241 237 230 237 252 253 252 256 253 257 259 254 255 255 256 260 264 270 272 273 274 275 274 276 277 278 279 281 283 283 285 287 289 293 297 301 302 301 303 305 315
247 247 246 243 238 248 250 252 250 252 250 254 254 251 251 251 257 265 270 274 278 280 280 279 280 281 280 280 280 280 281 283 285 286 287 289 292 296 299 299 300 304 313
236 234 248 257 255 252 253 249 248 248 248 249 257 257 251 252 253 259 267 275 280 283 281 281 282 282 281 282 282 279 278 279 282 284 285 288 290 291 295 298 298 303 308
245 250 260 265 264 262 255 249 247 247 249 248 245 250 245 247 251 257 263 272 277 281 280 285 291 293 298 288 276 272 269 272 279 280 283 285 285 285 291 295 295 298 308
258 263 260 258 262 261 257 248 248 247 245 250 249 242 244 251 255 258 261 265 274 279 283 286 291 292 296 298 304 299 280 266 274 279 281 282 281 281 289 290 289 294 306
266 265 264 257 251 250 254 254 249 247 250 246 247 249 247 249 253 258 262 265 268 272 277 283 288 290 294 300 301 294 284 285 283 282 280 279 277 279 279 281 281 291 301
267 269 270 263 254 248 253 254 253 250 247 247 248 249 249 256 257 258 262 265 271 275 277 281 286 290 296 297 298 294 276 279 282 285 287 275 270 269 265 269 274 287 295
263 265 267 263 259 255 250 250 253 254 251 247 247 246 250 254 257 258 262 263 266 267 275 282 287 289 293 292 298 289 281 273 281 285 292 306 281 262 251 256 264 283 288
262 267 269 266 261 258 254 249 249 251 252 252 249 249 250 252 255 258 261 266 268 269 274 279 285 288 288 294 293 290 299 298 289 289 291 293 286 256 244 241 252 270 279
259 259 264 266 263 257 255 252 249 249 250 252 252 252 252 253 254 256 257 261 264 268 271 275 278 280 281 281 302 309 310 299 290 282 300 304 276 268 248 258 246 261 273
255 254 254 257 260 258 256 256 253 250 250 251 252 254 254 255 255 255 257 259 262 265 268 271 273 277 278 287 289 290 295 295 292 279 270 290 275 267 244 226 245 256 267
255 253 252 251 254 255 255 255 256 255 253 252 252 252 252 253 254 256 257 259 262 263 265 267 268 271 274 277 279 281 283 291 290 285 267 263 251 262 244 230 241 256 268
254 253 252 252 251 252 253 251 252 254 256 256 255 255 255 254 254 254 255 257 259 262 263 263 264 265 268 271 275 277 281 287 272 280 291 254 237 257 249 245 243 252 265
254 254 253 252 254 254 254 253 252 251 253 254 256 257 257 257 257 257 256 256 256 259 261 262 263 265 266 268 271 271 266 270 264 277 270 251 245 255 247 247 251 255 263